Hermiston, OR

8:29 AM PDT on March 23, 2017 (GMT -0700)
Hermiston Municipal

Weather History for KHRI - February, 2013

Change the Weather History Date:

Friday, February 8, 2013

  Actual Average Record
Temperature  
Mean Temperature 35 °F 37 °F  
Max Temperature 46 °F 46 °F 66 °F (1945)
Min Temperature 24 °F 27 °F -26 °F (1929)
Degree Days  
Heating Degree Days 30    
Moisture  
Dew Point 25 °F    
Average Humidity 74    
Maximum Humidity 92    
Minimum Humidity 42    
Precipitation  
Precipitation 0.00 in 0.04 in 0.45 in (1985)
Month to date precipitation 0.35  
Year to date precipitation 1.69  
Sea Level Pressure  
Sea Level Pressure 30.17 in    
Wind  
Wind Speed 3 mph (South)    
Max Wind Speed 8 mph    
Max Gust Speed -    
Visibility 10 miles    
Events      
T = Trace of Precipitation, MM = Missing Value Source: NWS Daily Summary

Daily Weather History Graph

Daily Weather History Graph

Search for Another Location

Airport or City:

Trip Planner

Search our weather history database for the weather conditions in past years. The results will help you decide how hot, cold, wet, or windy it might be!

Date:

Astronomy

Feb. 08, 2013 Rise Set
Actual Time 7:09 AM PST 5:13 PM PST
Civil Twilight 6:38 AM PST 5:45 PM PST
Nautical Twilight 6:02 AM PST 6:20 PM PST
Astronomical Twilight 5:28 AM PST 6:54 PM PST
Moon 5:44 AM PST (2/8) 3:51 PM PST (2/8)
Length of Visible Light 11h 06m
Length of Day
10h 04m
Waning Crescent, 3% of the Moon is Illuminated
Feb 8
Waning Crescent
Feb 9
New
Feb 17
First Quarter
Feb 25
Full
Mar 4
Last Quarter

Hourly Weather History & Observations

Time (PST) Temp. Windchill Dew Point Humidity Pressure Visibility Wind Dir Wind Speed Gust Speed Precip Events Conditions
12:53 AM 27.0 °F 23.0 °F 24.1 °F 89% 30.11 in 10.0 mi SSE 3.5 mph - N/A   Clear
1:53 AM 27.0 °F 20.5 °F 24.1 °F 89% 30.12 in 10.0 mi South 5.8 mph - N/A   Partly Cloudy
2:53 AM 26.1 °F - 23.0 °F 88% 30.12 in 10.0 mi Calm Calm - N/A   Mostly Cloudy
4:53 AM 25.0 °F - 23.0 °F 92% 30.15 in 10.0 mi Calm Calm - N/A   Overcast
5:53 AM 28.0 °F - 24.1 °F 85% 30.16 in 10.0 mi Calm Calm - N/A   Overcast
6:53 AM 27.0 °F - 25.0 °F 92% 30.17 in 10.0 mi Calm Calm - N/A   Overcast
7:53 AM 28.9 °F - 26.1 °F 89% 30.19 in 10.0 mi Calm Calm - N/A   Overcast
8:53 AM 35.1 °F 32.2 °F 28.0 °F 76% 30.20 in 10.0 mi North 3.5 mph - N/A   Clear
9:53 AM 35.1 °F 32.2 °F 28.0 °F 76% 30.21 in 10.0 mi NNW 3.5 mph - N/A   Overcast
10:53 AM 37.9 °F - 28.0 °F 68% 30.21 in 10.0 mi Calm Calm - N/A   Overcast
11:53 AM 39.0 °F - 28.9 °F 67% 30.20 in 10.0 mi Calm Calm - N/A   Overcast
12:53 PM 44.1 °F 42.5 °F 28.0 °F 53% 30.18 in 10.0 mi Variable 3.5 mph - N/A   Clear
1:53 PM 45.0 °F 43.5 °F 27.0 °F 49% 30.16 in 10.0 mi Variable 3.5 mph - N/A   Clear
2:53 PM 46.9 °F - 26.1 °F 44% 30.16 in 10.0 mi North 3.5 mph - N/A   Clear
3:53 PM 46.9 °F - 25.0 °F 42% 30.16 in 10.0 mi Calm Calm - N/A   Clear
4:53 PM 43.0 °F - 26.1 °F 51% 30.15 in 10.0 mi Calm Calm - N/A   Clear
5:53 PM 37.0 °F 32.4 °F 26.1 °F 65% 30.15 in 10.0 mi SSE 5.8 mph - N/A   Clear
6:53 PM 33.1 °F 26.9 °F 25.0 °F 72% 30.16 in 10.0 mi South 6.9 mph - N/A   Clear
7:53 PM 28.9 °F 21.9 °F 24.1 °F 82% 30.17 in 10.0 mi South 6.9 mph - N/A   Clear
8:53 PM 28.9 °F 21.1 °F 24.1 °F 82% 30.17 in 10.0 mi South 8.1 mph - N/A   Clear
9:53 PM 26.1 °F - 21.9 °F 84% 30.17 in 10.0 mi Calm Calm - N/A   Clear
10:53 PM 24.1 °F 18.2 °F 21.9 °F 91% 30.18 in 10.0 mi South 4.6 mph - N/A   Clear
11:53 PM 26.1 °F 20.5 °F 21.9 °F 84% 30.18 in 10.0 mi South 4.6 mph - N/A   Clear